EW0624 Weather Reports


Display with metric or nautical units.
time (UTC)temp
F
wind
direction
speed
MPH
gust
MPH
rain 1hr
in
rain 24hr
in
rain mn
in
humidity
%
barometer
mb
20260508152403 58 220 3.0 8.0 0.01 0.12 0.12 92 1007.9
20260508151403 58 355 0.0 2.0 0.00 0.11 0.11 92 1007.6
20260508150903 59 73 0.0 0.0 0.00 0.11 0.11 92 1007.7
20260508150403 58 73 0.0 3.0 0.00 0.11 0.11 92 1007.7
20260508145903 58 59 0.0 3.0 0.00 0.11 0.11 91 1007.7
20260508145403 58 59 2.0 6.0 0.00 0.11 0.11 91 1007.7
20260508144904 58 55 2.0 6.0 0.00 0.12 0.11 91 1007.6
20260508144403 58 31 2.0 3.0 0.00 0.13 0.11 91 1007.5
20260508143904 58 69 0.0 3.0 0.00 0.13 0.11 92 1007.5
20260508143403 58 79 0.0 3.0 0.00 0.14 0.11 92 1007.6
20260508142903 58 51 0.0 2.0 0.00 0.14 0.11 92 1007.5
20260508142403 57 52 2.0 6.0 0.00 0.14 0.11 93 1007.6
20260508141903 57 41 2.0 6.0 0.00 0.14 0.11 94 1007.6
20260508141403 57 129 1.0 5.0 0.00 0.14 0.11 94 1007.7
20260508140903 57 63 2.0 5.0 0.00 0.14 0.11 95 1007.8
20260508140403 57 117 3.0 6.0 0.00 0.14 0.11 96 1007.9
20260508135903 57 107 2.0 5.0 0.00 0.14 0.11 96 1007.9
20260508135403 56 83 1.0 3.0 0.00 0.14 0.11 97 1007.9
20260508134904 56 78 4.0 7.0 0.00 0.14 0.11 98 1007.9
20260508134403 57 100 1.0 3.0 0.00 0.14 0.11 98 1008.0
20260508133904 56 142 0.0 1.0 0.00 0.14 0.11 99 1008.0
20260508133403 56 142 0.0 1.0 0.00 0.14 0.11 99 1008.1
20260508132903 56 132 0.0 0.0 0.00 0.14 0.11 99 1008.2
20260508132403 56 132 0.0 2.0 0.00 0.14 0.11 99 1008.2
20260508131903 56 221 0.0 0.0 0.00 0.14 0.11 99 1008.2
20260508130904 55 222 1.0 3.0 0.01 0.14 0.11 99 1008.4
20260508125903 55 252 5.0 10.0 0.01 0.14 0.11 99 1008.5
20260508125403 54 270 3.0 9.0 0.01 0.14 0.11 99 1008.4
20260508124403 54 262 7.0 13.0 0.01 0.14 0.11 99 1008.5
20260508123903 54 290 6.0 12.0 0.01 0.14 0.11 99 1008.4
20260508123404 54 297 7.0 13.0 0.01 0.14 0.11 99 1008.4
20260508122904 54 285 9.0 13.0 0.01 0.14 0.11 99 1008.9
20260508122403 54 258 6.0 10.0 0.01 0.14 0.11 99 1009.1
20260508121403 55 257 2.0 8.0 0.00 0.13 0.10 99 1009.0
20260508120903 55 254 2.0 3.0 0.00 0.13 0.10 99 1008.8
20260508120403 55 243 4.0 6.0 0.00 0.13 0.10 99 1008.8
20260508115904 55 232 2.0 3.0 0.00 0.13 0.10 99 1008.8
20260508115404 55 182 0.0 1.0 0.00 0.13 0.10 99 1008.8
20260508114904 55 182 1.0 2.0 0.00 0.13 0.10 99 1008.8
20260508113903 55 172 1.0 3.0 0.01 0.13 0.10 99 1008.5
20260508113403 55 132 0.0 1.0 0.01 0.13 0.10 99 1008.5
20260508112904 55 131 0.0 0.0 0.02 0.13 0.10 99 1008.4
20260508111903 55 129 0.0 0.0 0.06 0.13 0.10 99 1008.3
20260508110903 54 221 0.0 2.0 0.07 0.13 0.10 99 1008.6
20260508105903 54 290 0.0 0.0 0.08 0.13 0.10 99 1008.6
20260508104403 54 291 0.0 0.0 0.09 0.13 0.10 99 1008.8
20260508103903 54 291 0.0 0.0 0.08 0.13 0.09 99 1008.9
20260508103403 54 291 0.0 0.0 0.08 0.13 0.09 99 1009.0
20260508102903 54 291 0.0 2.0 0.06 0.11 0.08 99 1009.0
20260508102403 54 293 5.0 9.0 0.06 0.10 0.07 99 1009.0
20260508101904 54 246 7.0 12.0 0.03 0.08 0.05 99 1009.1
20260508101404 54 252 8.0 12.0 0.02 0.06 0.03 99 1009.0
20260508100904 54 248 8.0 12.0 0.02 0.06 0.03 99 1008.9
20260508095903 54 211 7.0 12.0 0.01 0.06 0.02 99 1008.8
20260508095403 54 204 4.0 7.0 0.01 0.06 0.02 99 1008.8
20260508094403 53 245 3.0 12.0 0.01 0.05 0.02 99 1008.5
20260508093904 53 281 7.0 12.0 0.01 0.05 0.02 99 1008.4
20260508093404 53 272 6.0 12.0 0.02 0.05 0.02 98 1008.4
20260508092907 53 273 6.0 12.0 0.02 0.05 0.02 98 1008.3
20260508092404 53 245 7.0 12.0 0.02 0.05 0.02 98 1008.3
20260508091903 53 294 6.0 9.0 0.02 0.05 0.02 98 1008.2
20260508091404 53 264 6.0 10.0 0.02 0.05 0.02 98 1008.2
20260508090904 53 283 6.0 12.0 0.02 0.05 0.02 98 1008.1
20260508090403 53 258 9.0 14.0 0.02 0.05 0.02 98 1007.9
20260508084903 53 270 3.0 10.0 0.02 0.05 0.02 97 1007.4
20260508084403 53 251 10.0 12.0 0.01 0.04 0.01 97 1007.5
20260508083904 53 253 7.0 12.0 0.01 0.04 0.01 97 1007.4
20260508082904 53 251 4.0 9.0 0.00 0.03 0.00 96 1007.2
20260508082403 54 262 2.0 6.0 0.00 0.03 0.00 96 1007.1
20260508081903 54 257 1.0 5.0 0.00 0.03 0.00 96 1007.1
20260508080903 54 267 3.0 7.0 0.00 0.03 0.00 95 1007.0
20260508080403 54 263 1.0 6.0 0.00 0.03 0.00 95 1006.9
20260508075904 54 245 3.0 7.0 0.00 0.03 0.00 95 1006.9
20260508074904 55 290 2.0 3.0 0.00 0.03 0.00 95 1006.9
20260508074406 54 175 0.0 0.0 0.00 0.03 0.00 95 1006.8
20260508073905 54 175 0.0 0.0 0.00 0.03 0.00 96 1006.8
20260508072904 54 175 0.0 0.0 0.00 0.03 0.00 96 1006.8
20260508071904 54 175 0.0 0.0 0.00 0.03 0.00 96 1006.8
20260508071404 54 173 0.0 0.0 0.00 0.03 0.00 96 1006.8
20260508070903 54 173 0.0 0.0 0.00 0.03 0.00 96 1006.7
20260508070404 54 173 0.0 0.0 0.00 0.03 0.00 96 1006.7
20260508065903 53 173 0.0 5.0 0.00 0.03 0.00 96 1006.7
20260508065404 53 171 0.0 0.0 0.00 0.03 0.00 96 1006.8
20260508064903 53 171 0.0 0.0 0.00 0.03 0.00 96 1006.7
20260508064404 53 171 0.0 0.0 0.00 0.03 0.00 96 1006.7
20260508063903 53 171 0.0 0.0 0.00 0.03 0.00 96 1006.7
20260508063403 53 171 0.0 0.0 0.00 0.03 0.00 96 1006.7
20260508062903 53 171 0.0 2.0 0.00 0.03 0.00 96 1006.7
20260508062404 53 171 0.0 3.0 0.00 0.03 0.00 97 1006.7
20260508061404 53 171 0.0 0.0 0.00 0.03 0.00 97 1006.8
20260508061015 52 171 0.0 0.0 0.00 0.03 0.00 97 1006.8
20260508060404 52 171 0.0 0.0 0.00 0.03 0.00 97 1006.9
20260508055903 52 171 0.0 0.0 0.00 0.03 0.00 97 1006.9
20260508055404 52 171 0.0 0.0 0.00 0.03 0.00 97 1007.0
20260508054903 52 171 0.0 0.0 0.00 0.03 0.00 97 1006.9
20260508054403 52 171 0.0 0.0 0.00 0.03 0.00 97 1006.9
20260508053903 52 171 0.0 0.0 0.00 0.03 0.00 97 1006.9
20260508053404 52 171 0.0 0.0 0.00 0.03 0.00 97 1006.9
20260508052903 52 171 0.0 0.0 0.00 0.03 0.00 97 1006.9
20260508052403 52 171 0.0 0.0 0.00 0.03 0.00 97 1006.9
20260508051904 52 171 0.0 0.0 0.00 0.03 0.00 97 1006.9
20260508051404 52 171 0.0 0.0 0.00 0.03 0.00 97 1006.9
20260508050903 52 171 0.0 1.0 0.00 0.03 0.00 97 1006.8
20260508050404 52 171 1.0 3.0 0.00 0.03 0.00 97 1006.8
20260508045403 52 169 2.0 5.0 0.00 0.03 0.00 97 1006.8
20260508043903 52 162 0.0 0.0 0.00 0.04 0.00 97 1006.7
20260508043403 52 162 0.0 0.0 0.00 0.04 0.00 96 1006.7
20260508042903 52 162 1.0 2.0 0.00 0.04 0.00 96 1006.8
20260508042403 52 146 2.0 3.0 0.00 0.04 0.00 96 1006.8
20260508041904 53 96 2.0 3.0 0.00 0.04 0.00 97 1006.8
20260508040903 53 47 0.0 0.0 0.00 0.04 0.00 97 1006.8
20260508040403 53 5 0.0 0.0 0.00 0.04 0.00 97 1006.9
20260508035904 53 5 0.0 0.0 0.00 0.04 0.00 97 1006.9
20260508035403 53 5 0.0 0.0 0.00 0.04 0.00 97 1007.0
20260508034903 53 5 0.0 0.0 0.00 0.04 0.00 97 1007.2
20260508034403 53 5 0.0 0.0 0.00 0.04 0.00 97 1007.3
20260508033404 53 5 0.0 0.0 0.00 0.04 0.00 97 1007.2
20260508032904 53 294 0.0 0.0 0.00 0.04 0.00 97 1007.2
20260508032403 52 266 0.0 0.0 0.00 0.04 0.00 96 1007.3
20260508031903 52 266 0.0 0.0 0.00 0.04 0.00 96 1007.4
20260508031403 52 266 0.0 0.0 0.00 0.04 0.00 96 1007.5
20260508030903 52 266 0.0 0.0 0.00 0.04 0.00 96 1007.6
20260508030403 52 266 0.0 0.0 0.00 0.04 0.00 96 1007.6
20260508025904 53 266 0.0 6.0 0.00 0.04 0.00 96 1007.7
20260508025403 53 281 0.0 6.0 0.00 0.04 0.00 96 1007.7
20260508024903 53 286 0.0 0.0 0.00 0.04 0.00 95 1007.7
20260508024403 53 286 0.0 0.0 0.00 0.04 0.00 95 1007.8
20260508023904 53 286 1.0 6.0 0.00 0.04 0.00 95 1007.8
20260508023403 53 279 1.0 3.0 0.00 0.04 0.00 95 1007.9
20260508022903 53 196 0.0 0.0 0.00 0.04 0.00 95 1007.9
20260508022403 53 196 0.0 5.0 0.00 0.04 0.00 95 1007.8
20260508021903 53 198 2.0 3.0 0.00 0.04 0.00 94 1007.8
20260508021403 54 198 0.0 0.0 0.00 0.04 0.00 94 1007.7
20260508020403 54 198 0.0 0.0 0.00 0.04 0.00 94 1007.7
20260508015903 54 198 0.0 0.0 0.00 0.04 0.00 94 1007.8
20260508014904 54 198 0.0 0.0 0.00 0.04 0.00 94 1008.0
20260508014404 54 198 0.0 0.0 0.00 0.04 0.00 94 1008.0
20260508013904 54 198 0.0 0.0 0.00 0.04 0.00 94 1008.0
20260508013403 54 198 0.0 0.0 0.00 0.04 0.00 94 1008.1
20260508012903 54 198 0.0 2.0 0.00 0.04 0.00 94 1008.1
20260508012404 54 198 0.0 3.0 0.00 0.04 0.00 94 1008.1
20260508011904 54 198 0.0 0.0 0.00 0.04 0.00 94 1008.1
20260508011403 54 198 0.0 1.0 0.00 0.04 0.00 94 1008.1
20260508010404 54 197 1.0 3.0 0.00 0.04 0.00 94 1008.3
20260508004904 54 209 0.0 0.0 0.00 0.04 0.00 93 1008.5
20260508004404 54 209 0.0 0.0 0.00 0.04 0.00 93 1008.6
20260508003403 54 209 0.0 3.0 0.00 0.04 0.00 93 1008.7
20260508002404 55 222 1.0 3.0 0.00 0.04 0.00 93 1008.8
20260508001404 55 342 0.0 0.0 0.00 0.04 0.00 93 1008.8
20260508000904 55 342 0.0 0.0 0.00 0.04 0.00 93 1008.6
20260508000405 55 342 0.0 0.0 0.00 0.04 0.00 93 1008.8
20260507235903 55 244 0.0 0.0 0.00 0.04 0.00 93 1008.8
20260507235403 55 244 0.0 1.0 0.00 0.04 0.00 93 1008.9
20260507234903 55 244 0.0 2.0 0.00 0.04 0.00 93 1009.0
20260507234404 55 244 0.0 0.0 0.00 0.04 0.00 94 1009.0
20260507233903 55 244 0.0 0.0 0.00 0.04 0.00 94 1009.1
20260507233403 55 244 0.0 0.0 0.00 0.04 0.00 94 1009.1
20260507232903 55 244 0.0 0.0 0.00 0.04 0.00 94 1009.1
20260507231904 55 248 0.0 0.0 0.00 0.04 0.00 94 1009.1
20260507230903 55 245 1.0 3.0 0.00 0.04 0.00 94 1009.1
20260507230403 55 232 0.0 3.0 0.00 0.04 0.00 94 1009.2
20260507225903 55 228 2.0 5.0 0.00 0.04 0.00 93 1009.3
20260507224904 55 205 0.0 0.0 0.00 0.04 0.00 94 1009.3
20260507224403 55 181 0.0 0.0 0.00 0.04 0.00 94 1009.4
20260507223903 55 180 1.0 5.0 0.00 0.04 0.00 93 1009.4
20260507222404 55 183 0.0 3.0 0.00 0.04 0.00 93 1009.4
20260507221903 55 161 2.0 6.0 0.00 0.04 0.00 93 1009.4
20260507221404 55 163 2.0 3.0 0.00 0.04 0.00 92 1009.4
20260507220903 55 167 3.0 5.0 0.00 0.04 0.00 92 1009.5
20260507220403 55 159 2.0 5.0 0.00 0.04 0.00 92 1009.4
20260507215903 55 167 1.0 3.0 0.00 0.04 0.04 92 1009.4
20260507214403 55 178 2.0 3.0 0.00 0.04 0.04 92 1009.5
20260507213903 55 179 1.0 3.0 0.00 0.04 0.04 92 1009.5
20260507213403 56 181 2.0 5.0 0.00 0.04 0.04 92 1009.6
20260507212905 56 182 2.0 3.0 0.00 0.04 0.04 92 1009.6
20260507212403 56 186 0.0 3.0 0.00 0.04 0.04 92 1009.6
20260507211903 56 187 0.0 0.0 0.00 0.04 0.04 92 1009.6
20260507210903 56 187 0.0 3.0 0.00 0.04 0.04 92 1009.7
20260507210403 56 184 2.0 5.0 0.00 0.04 0.04 91 1009.8
20260507205904 56 183 6.0 8.0 0.00 0.04 0.04 90 1009.8
20260507205403 57 186 5.0 9.0 0.00 0.04 0.04 90 1009.7
20260507204904 57 186 1.0 3.0 0.00 0.04 0.04 90 1009.6
20260507204403 57 189 0.0 1.0 0.00 0.04 0.04 90 1009.5
20260507203403 57 189 0.0 0.0 0.00 0.04 0.04 90 1009.4
20260507202903 57 189 0.0 1.0 0.00 0.04 0.04 90 1009.3
20260507202403 57 189 1.0 3.0 0.00 0.04 0.04 89 1009.3
20260507201903 57 189 1.0 2.0 0.00 0.04 0.04 89 1009.3
20260507201403 57 189 1.0 3.0 0.00 0.04 0.04 89 1009.3
20260507200903 57 192 2.0 3.0 0.00 0.04 0.04 88 1009.3
20260507200403 58 192 3.0 5.0 0.00 0.04 0.04 88 1009.2
20260507195904 58 193 1.0 3.0 0.00 0.04 0.04 87 1009.2
20260507195403 58 194 2.0 3.0 0.00 0.04 0.04 87 1009.2
20260507194903 58 194 0.0 0.0 0.00 0.04 0.04 86 1009.1
20260507194404 58 194 0.0 0.0 0.00 0.04 0.04 86 1009.0
20260507193903 58 195 0.0 0.0 0.00 0.04 0.04 86 1009.0
20260507193403 58 195 0.0 0.0 0.00 0.04 0.04 86 1009.0
20260507192903 58 194 0.0 3.0 0.00 0.04 0.04 86 1008.9
20260507192404 58 195 2.0 3.0 0.00 0.04 0.04 86 1008.9
20260507191903 58 194 2.0 3.0 0.00 0.04 0.04 86 1008.9
20260507191403 58 195 3.0 6.0 0.00 0.04 0.04 86 1008.9
20260507190903 59 196 3.0 5.0 0.00 0.04 0.04 85 1008.9
20260507190404 59 190 2.0 5.0 0.00 0.04 0.04 84 1008.8
20260507185904 59 195 3.0 6.0 0.00 0.04 0.04 83 1008.7
20260507185421 59 162 5.0 6.0 0.00 0.04 0.04 83 1008.7
20260507184903 59 164 0.0 3.0 0.00 0.04 0.04 83 1008.6
20260507183904 59 190 1.0 3.0 0.00 0.04 0.04 83 1008.7
20260507183404 59 191 0.0 3.0 0.00 0.04 0.04 82 1008.6
20260507182903 59 191 0.0 2.0 0.00 0.04 0.04 83 1008.5
20260507182403 59 190 1.0 3.0 0.00 0.04 0.04 83 1008.5
20260507181904 59 192 0.0 2.0 0.00 0.04 0.04 83 1008.6
20260507180903 59 192 3.0 8.0 0.00 0.04 0.04 84 1008.6
20260507180403 59 173 3.0 5.0 0.00 0.04 0.04 85 1008.6
20260507175404 60 200 8.0 12.0 0.00 0.04 0.04 85 1008.6
20260507174904 60 152 3.0 8.0 0.00 0.04 0.04 84 1008.5
20260507174404 60 51 3.0 12.0 0.00 0.04 0.04 83 1008.4
20260507173904 60 49 9.0 14.0 0.00 0.04 0.04 84 1008.3
20260507173403 61 68 4.0 10.0 0.00 0.04 0.04 85 1008.5
20260507172903 61 123 4.0 9.0 0.00 0.04 0.04 85 1008.9
20260507172404 62 158 2.0 8.0 0.00 0.04 0.04 84 1009.0
20260507171903 62 141 2.0 6.0 0.00 0.04 0.04 83 1009.0
20260507171404 62 170 2.0 6.0 0.00 0.04 0.04 83 1008.9
20260507170903 62 172 0.0 1.0 0.00 0.04 0.04 82 1008.8
20260507170404 62 173 1.0 3.0 0.00 0.04 0.04 81 1008.7
20260507165903 62 172 2.0 7.0 0.00 0.04 0.04 79 1008.7
20260507165404 62 150 2.0 3.0 0.00 0.04 0.04 76 1008.6
20260507164903 62 81 0.0 0.0 0.00 0.04 0.04 78 1008.5
20260507163903 62 77 0.0 0.0 0.00 0.04 0.04 79 1008.4
20260507163404 62 77 0.0 0.0 0.00 0.04 0.04 80 1008.3
20260507162404 61 77 0.0 0.0 0.00 0.04 0.04 82 1008.3
20260507161904 61 76 0.0 1.0 0.00 0.04 0.04 83 1008.2
20260507161403 61 76 0.0 2.0 0.00 0.04 0.04 83 1008.2
20260507160904 61 69 2.0 5.0 0.00 0.04 0.04 82 1008.2
20260507155904 62 83 3.0 8.0 0.00 0.04 0.04 80 1008.1
20260507155404 62 19 2.0 7.0 0.00 0.04 0.04 79 1008.1
20260507154903 62 85 2.0 8.0 0.01 0.04 0.04 79 1008.1
20260507154404 62 353 3.0 7.0 0.02 0.04 0.04 77 1008.1
20260507153904 62 18 3.0 9.0 0.02 0.04 0.04 77 1008.0